• In Austria
  • List of Countries
  • For 7 days
  • Water Temperature
  • Satellite Maps
  • Weather Map
  • News
  • Weather Widgets
  • user-avatar
    Login

    Hourly Weather Chipata

    Today, 20 October, Saturday

    Time Temperature Precipitation Wind Pressure Humidity
    00:00 +26°C° 0 mm 3 mps 677 mmHg 60%
    01:00 +26°C° 0 mm 2 mps 677 mmHg 63%
    02:00 +25°C° 0 mm 2 mps 677 mmHg 65%
    03:00 +25°C° 0 mm 2 mps 677 mmHg 68%
    04:00 +24°C° 0 mm 2 mps 677 mmHg 70%
    05:00 +24°C° 0 mm 2 mps 677 mmHg 72%
    06:00 +25°C° 0 mm 3 mps 678 mmHg 65%
    07:00 +27°C° 0 mm 3 mps 679 mmHg 58%
    08:00 +29°C° 0 mm 4 mps 680 mmHg 51%
    09:00 +31°C° 0 mm 3 mps 680 mmHg 44%
    10:00 +34°C° 0 mm 3 mps 680 mmHg 37%
    11:00 +36°C° 0 mm 3 mps 680 mmHg 30%
    12:00 +35°C° 0 mm 3 mps 679 mmHg 32%
    13:00 +35°C° 0 mm 3 mps 679 mmHg 33%
    14:00 +34°C° 0 mm 3 mps 678 mmHg 34%
    15:00 +33°C° 0 mm 3 mps 678 mmHg 36%
    16:00 +31°C° 0 mm 3 mps 678 mmHg 38%
    17:00 +31°C° 0 mm 3 mps 678 mmHg 40%
    18:00 +30°C° 0.1 mm 3 mps 678 mmHg 44%
    19:00 +29°C° 0.1 mm 3 mps 678 mmHg 48%
    20:00 +28°C° 0.1 mm 3 mps 679 mmHg 51%
    21:00 +27°C° 0 mm 3 mps 679 mmHg 53%
    22:00 +27°C° 0 mm 3 mps 679 mmHg 56%
    23:00 +26°C° 0 mm 3 mps 679 mmHg 58%

    Tomorrow, 21 October, Sunday

    Time Temperature Precipitation Wind Pressure Humidity
    00:00 +25°C° 0 mm 3 mps 679 mmHg 61%
    01:00 +25°C° 0 mm 3 mps 679 mmHg 63%
    02:00 +23°C° 0 mm 4 mps 679 mmHg 66%
    03:00 +23°C° 0.7 mm 4 mps 679 mmHg 69%
    04:00 +22°C° 0.7 mm 4 mps 679 mmHg 71%
    05:00 +22°C° 0.7 mm 4 mps 679 mmHg 74%
    06:00 +23°C° 0.1 mm 5 mps 680 mmHg 70%
    07:00 +23°C° 0.1 mm 5 mps 681 mmHg 66%
    08:00 +25°C° 0.1 mm 5 mps 682 mmHg 62%
    09:00 +26°C° 0.1 mm 5 mps 682 mmHg 56%
    10:00 +28°C° 0.1 mm 5 mps 682 mmHg 50%
    11:00 +29°C° 0.1 mm 5 mps 682 mmHg 44%
    12:00 +29°C° 0.2 mm 5 mps 681 mmHg 43%
    13:00 +30°C° 0.2 mm 5 mps 681 mmHg 41%
    14:00 +30°C° 0.2 mm 5 mps 680 mmHg 40%
    15:00 +30°C° 0.1 mm 5 mps 680 mmHg 41%
    16:00 +29°C° 0.1 mm 5 mps 680 mmHg 41%
    17:00 +28°C° 0.1 mm 4 mps 680 mmHg 42%
    18:00 +27°C° 0 mm 4 mps 680 mmHg 45%
    19:00 +26°C° 0 mm 5 mps 681 mmHg 48%
    20:00 +25°C° 0 mm 5 mps 681 mmHg 51%
    21:00 +23°C° 0 mm 5 mps 682 mmHg 54%
    22:00 +23°C° 0 mm 5 mps 682 mmHg 56%
    23:00 +22°C° 0 mm 5 mps 682 mmHg 59%

    Day after tomorrow, 22 October, Monday

    Time Temperature Precipitation Wind Pressure Humidity
    00:00 +21°C° 0 mm 5 mps 681 mmHg 61%
    01:00 +21°C° 0 mm 4 mps 681 mmHg 64%
    02:00 +20°C° 0 mm 4 mps 680 mmHg 66%
    03:00 +20°C° 0 mm 4 mps 680 mmHg 67%
    04:00 +20°C° 0 mm 4 mps 680 mmHg 68%
    05:00 +20°C° 0 mm 4 mps 680 mmHg 69%
    06:00 +20°C° 0 mm 4 mps 681 mmHg 66%
    07:00 +21°C° 0 mm 5 mps 682 mmHg 62%
    08:00 +22°C° 0 mm 5 mps 683 mmHg 59%
    09:00 +22°C° 0 mm 4 mps 683 mmHg 58%
    10:00 +22°C° 0 mm 4 mps 683 mmHg 57%
    11:00 +22°C° 0 mm 4 mps 683 mmHg 56%
    12:00 +23°C° 0 mm 4 mps 682 mmHg 54%
    13:00 +23°C° 0 mm 4 mps 681 mmHg 51%
    14:00 +25°C° 0 mm 4 mps 681 mmHg 49%
    15:00 +25°C° 0 mm 4 mps 681 mmHg 49%
    16:00 +23°C° 0 mm 4 mps 680 mmHg 49%
    17:00 +23°C° 0 mm 4 mps 680 mmHg 50%
    18:00 +24°C° 0 mm 3 mps 681 mmHg 51%
    19:00 +22°C° 0 mm 3 mps 681 mmHg 53%
    20:00 +21°C° 0 mm 3 mps 682 mmHg 55%
    21:00 +21°C° 0 mm 3 mps 682 mmHg 57%
    22:00 +20°C° 0 mm 3 mps 682 mmHg 59%
    23:00 +20°C° 0 mm 3 mps 682 mmHg 60%

    23 October, Tuesday

    Time Temperature Precipitation Wind Pressure Humidity
    00:00 +19°C° 0 mm 3 mps 682 mmHg 63%
    01:00 +18°C° 0 mm 3 mps 681 mmHg 65%
    02:00 +18°C° 0 mm 4 mps 681 mmHg 67%
    03:00 +17°C° 0 mm 3 mps 681 mmHg 69%
    04:00 +17°C° 0 mm 3 mps 681 mmHg 71%
    05:00 +17°C° 0 mm 3 mps 681 mmHg 73%
    06:00 +18°C° 0 mm 3 mps 682 mmHg 68%
    07:00 +19°C° 0 mm 3 mps 683 mmHg 62%
    08:00 +21°C° 0 mm 4 mps 684 mmHg 57%
    09:00 +23°C° 0 mm 4 mps 683 mmHg 50%
    10:00 +26°C° 0 mm 4 mps 683 mmHg 42%
    11:00 +28°C° 0 mm 4 mps 683 mmHg 35%
    12:00 +29°C° 0 mm 4 mps 682 mmHg 32%
    13:00 +30°C° 0 mm 4 mps 682 mmHg 29%
    14:00 +32°C° 0 mm 4 mps 681 mmHg 27%
    15:00 +32°C° 0 mm 4 mps 681 mmHg 28%
    16:00 +30°C° 0 mm 4 mps 680 mmHg 29%
    17:00 +29°C° 0 mm 4 mps 680 mmHg 30%
    18:00 +28°C° 0 mm 4 mps 680 mmHg 34%
    19:00 +26°C° 0 mm 4 mps 681 mmHg 38%
    20:00 +23°C° 0 mm 4 mps 681 mmHg 42%
    21:00 +23°C° 0 mm 4 mps 681 mmHg 45%
    22:00 +22°C° 0 mm 4 mps 681 mmHg 47%
    23:00 +21°C° 0 mm 4 mps 681 mmHg 49%

    24 October, Wednesday

    Time Temperature Precipitation Wind Pressure Humidity
    00:00 +21°C° 0 mm 4 mps 681 mmHg 53%
    01:00 +20°C° 0 mm 3 mps 681 mmHg 56%
    02:00 +20°C° 0 mm 3 mps 680 mmHg 60%
    03:00 +19°C° 0 mm 3 mps 680 mmHg 62%
    04:00 +19°C° 0 mm 3 mps 680 mmHg 65%
    05:00 +18°C° 0 mm 3 mps 680 mmHg 68%
    06:00 +19°C° 0 mm 3 mps 681 mmHg 63%
    07:00 +21°C° 0 mm 3 mps 681 mmHg 58%
    08:00 +22°C° 0 mm 4 mps 682 mmHg 54%
    09:00 +26°C° 0 mm 3 mps 682 mmHg 47%
    10:00 +28°C° 0 mm 3 mps 682 mmHg 39%
    11:00 +31°C° 0 mm 3 mps 682 mmHg 32%
    12:00 +31°C° 0 mm 3 mps 682 mmHg 30%
    13:00 +33°C° 0 mm 3 mps 681 mmHg 28%
    14:00 +34°C° 0 mm 3 mps 680 mmHg 25%
    15:00 +33°C° 0 mm 4 mps 680 mmHg 28%
    16:00 +32°C° 0 mm 4 mps 680 mmHg 31%
    17:00 +30°C° 0 mm 4 mps 679 mmHg 33%
    18:00 +28°C° 0 mm 4 mps 680 mmHg 37%
    19:00 +27°C° 0 mm 4 mps 680 mmHg 41%
    20:00 +25°C° 0 mm 3 mps 680 mmHg 45%
    21:00 +25°C° 0 mm 3 mps 680 mmHg 47%
    22:00 +24°C° 0 mm 3 mps 680 mmHg 49%
    23:00 +23°C° 0 mm 2 mps 680 mmHg 51%

    25 October, Thursday

    Time Temperature Precipitation Wind Pressure Humidity
    00:00 +23°C° 0 mm 2 mps 679 mmHg 53%
    01:00 +21°C° 0 mm 2 mps 679 mmHg 54%
    02:00 +21°C° 0 mm 2 mps 678 mmHg 55%
    03:00 +21°C° 0 mm 2 mps 679 mmHg 58%
    04:00 +20°C° 0 mm 2 mps 679 mmHg 61%
    05:00 +20°C° 0 mm 2 mps 679 mmHg 63%
    06:00 +23°C° 0 mm 2 mps 679 mmHg 57%
    07:00 +25°C° 0 mm 3 mps 680 mmHg 51%
    08:00 +26°C° 0 mm 3 mps 681 mmHg 44%
    09:00 +29°C° 0 mm 3 mps 680 mmHg 39%
    10:00 +31°C° 0 mm 3 mps 680 mmHg 33%
    11:00 +34°C° 0 mm 3 mps 680 mmHg 28%
    12:00 +35°C° 0 mm 3 mps 680 mmHg 26%
    13:00 +36°C° 0 mm 3 mps 679 mmHg 25%
    14:00 +37°C° 0 mm 3 mps 678 mmHg 24%
    15:00 +36°C° 0 mm 3 mps 678 mmHg 25%
    16:00 +35°C° 0 mm 3 mps 678 mmHg 27%
    17:00 +34°C° 0 mm 3 mps 677 mmHg 28%
    18:00 +31°C° 0 mm 3 mps 678 mmHg 32%
    19:00 +30°C° 0 mm 3 mps 678 mmHg 36%
    20:00 +29°C° 0 mm 3 mps 679 mmHg 40%
    21:00 +28°C° 0 mm 3 mps 679 mmHg 43%
    22:00 +27°C° 0 mm 2 mps 679 mmHg 47%
    23:00 +26°C° 0 mm 2 mps 679 mmHg 50%
    Show more